Location: Terra Rouge Observatory
(46.0000°N, 62.7500°W)
Time: 08:18:25
(UTC-03:00)

NOSS 3-1 (A) - Visible Passes

Search period start: 31 October 2014 00:00
Search period end: 09 November 2014 23:00
Orbit: 892 x 1321 km, 63.4° (Epoch: 28 October)

Date Brightness Start Highest point End Pass type
(mag) Time Alt. Az. Time Alt. Az. Time Alt. Az.
31 Oct 5.7 03:13:41 23° NNE 03:13:41 23° NNE 03:18:52 10° ENE visible
31 Oct 4.5 05:01:09 24° NNW 05:05:41 54° NE 05:13:28 10° ESE visible
31 Oct 4.3 06:49:37 10° NW 06:56:44 46° WSW 07:04:19 10° S visible
01 Nov 6.2 02:30:57 15° NE 02:30:57 15° NE 02:32:57 10° ENE visible
01 Nov 4.9 04:18:27 33° N 04:20:41 40° NE 04:28:02 10° ESE visible
01 Nov 4.0 06:05:56 16° NW 06:12:10 67° WSW 06:20:09 10° SSE visible
02 Nov 5.3 02:35:51 31° NE 02:35:51 31° NE 02:42:22 10° E visible
02 Nov 3.9 04:23:21 31° NW 04:27:29 88° NE 04:35:34 10° SE visible
02 Nov 5.0 06:12:00 10° WNW 06:17:50 24° WSW 06:23:57 10° SSW visible
02 Nov 5.3 20:05:49 10° SSW 20:07:18 19° SSW 20:07:18 19° SSW visible
03 Nov 5.9 01:53:22 20° ENE 01:53:22 20° ENE 01:56:31 10° ENE visible
03 Nov 4.2 03:40:53 51° N 03:42:41 65° NE 03:50:39 10° SE visible
03 Nov 4.5 05:28:23 17° WNW 05:33:28 37° WSW 05:40:39 10° S visible
03 Nov 4.3 19:21:37 10° S 19:25:08 33° SSE 19:25:08 33° SSE visible
03 Nov 6.0 21:12:27 10° WSW 21:12:40 11° WSW 21:12:40 11° WSW visible
04 Nov 4.7 02:58:32 46° ENE 02:58:32 46° ENE 03:05:24 10° ESE visible
04 Nov 4.1 04:46:04 36° WNW 04:48:59 54° WSW 04:56:46 10° SSE visible
04 Nov 4.2 18:37:55 10° S 18:42:55 29° ESE 18:42:55 29° ESE visible
04 Nov 4.9 20:27:22 10° SW 20:30:26 31° WSW 20:30:26 31° WSW visible
05 Nov 5.7 02:16:19 25° E 02:16:19 25° E 02:19:52 10° E visible
05 Nov 3.8 04:03:51 74° W 04:04:22 77° SW 04:12:26 10° SSE visible
05 Nov 5.2 05:51:23 15° W 05:54:27 18° WSW 05:59:32 10° SSW visible
05 Nov 4.8 17:54:56 10° SSE 17:58:50 18° ESE 18:00:35 16° E visible
05 Nov 3.5 19:42:35 10° SW 19:48:05 75° SW 19:48:05 75° SW visible
05 Nov 6.1 21:35:10 10° W 21:35:36 12° W 21:35:36 12° W visible
06 Nov 4.5 03:21:44 53° ESE 03:21:44 53° ESE 03:27:43 10° SE visible
06 Nov 4.7 05:09:17 28° W 05:10:10 29° WSW 05:16:45 10° SSW visible
06 Nov 3.4 18:58:09 10° SSW 19:04:07 62° ESE 19:05:38 48° ENE visible
06 Nov 5.2 20:49:42 10° W 20:53:08 28° WNW 20:53:08 28° WNW visible
07 Nov 5.6 02:39:43 24° ESE 02:39:43 24° ESE 02:42:39 10° ESE visible
07 Nov 4.5 04:27:15 39° SW 04:27:15 39° SW 04:33:12 10° S visible
07 Nov 3.9 18:14:07 10° S 18:19:41 39° ESE 18:23:04 23° ENE visible
07 Nov 4.2 20:04:27 10° WSW 20:10:27 49° NW 20:10:33 49° NW visible
08 Nov 5.1 03:45:17 31° S 03:45:17 31° S 03:49:08 10° SSE visible
08 Nov 5.6 05:32:49 12° WSW 05:32:49 12° WSW 05:34:30 10° SW visible
08 Nov 4.5 17:30:39 10° SSE 17:35:23 24° ESE 17:40:23 10° ENE visible
08 Nov 3.7 19:19:28 10° SW 19:25:36 71° NW 19:27:52 42° NNE visible
08 Nov 5.7 21:12:36 10° WNW 21:15:21 20° NW 21:15:21 20° NW visible
09 Nov 6.0 03:03:19 16° SE 03:03:19 16° SE 03:04:39 10° SE visible
09 Nov 5.7 04:50:52 15° SW 04:50:52 15° SW 04:52:34 10° SSW visible
09 Nov 3.4 18:34:49 10° SSW 18:40:54 80° SE 18:45:05 24° NE visible
09 Nov 5.0 20:27:02 10° W 20:32:33 31° NNW 20:32:33 31° NNW visible
